Hourly Weather Roundup
Issued by NWS Central Illinois

Home | Current Version | Previous Version | Text Only | Print | Product List | Glossary On
Versions: 1 2 3 4 5 6 7 8 9 10 11 12 13 14 15 16 17 18 19 20 21 22 23 24 25 26 27 28 29 30 31 32 33 34 35 36 37 38 39 40 41 42 43 44 45 46 47 48 49 50
000
NZUS43 KILX 030210
HWRILX

AREA WEATHER ROUNDUP
NATIONAL WEATHER SERVICE, LINCOLN IL
900 PM CDT SAT MAY 02 2015


CITY           SKY/WX    TMP DP  RH WIND       PRES   REMARKS
BLOOMINGTON    CLOUDY    64  42  44 S8        30.01R
CHAMPAIGN      CLOUDY    65  40  39 S9        30.02R
DANVILLE       CLOUDY    63  41  45 S6        30.00R
DECATUR        CLOUDY    63  43  48 S6        30.01R
EFFINGHAM      CLOUDY    63  42  45 SE3       30.05R
FLORA          MOCLDY    61  49  63 CALM      30.04S
GALESBURG      MOCLDY    64  44  47 SE5       29.97R
JACKSONVILLE   CLOUDY    66  50  55 CALM      30.01R
LACON          CLOUDY    63  45  52 CALM      29.98R
LAWRENCEVILLE  MOCLDY    62  49  62 SE7       30.06R
LITCHFIELD     CLOUDY    65  44  46 SE5       30.01S
$$


CITY           SKY/WX    TMP DP  RH WIND       PRES   REMARKS
LINCOLN        CLOUDY    67  42  40 CALM      29.97S
MACOMB         CLOUDY    63  48  58 S6        29.99S
MATTOON        CLOUDY    63  42  46 S6        30.03R
MT CARMEL AP   MOCLDY    63  41  45 S3        30.05R
OLNEY-NOBLE AP MOCLDY    63  45  51 SE3       30.05R
PARIS          CLOUDY    60  46  59 S6        30.05R
PEORIA         CLOUDY    66  44  45 CALM      29.98R
PONTIAC        CLOUDY    67  41  38 SW7       30.00R
RANTOUL        CLOUDY    67  40  37 S8        30.01S
ROBINSON       CLOUDY    58  47  67 S3        30.06R
SPRINGFIELD    CLOUDY    68  43  40 SW5       30.00R
TAYLORVILLE    CLOUDY    64  43  45 S6        30.01R
$$

...REGIONAL REPORTS...


CITY           SKY/WX    TMP DP  RH WIND       PRES   REMARKS
CHICAGO O`HARE MOCLDY    69  36  29 SW7       29.96R
KANKAKEE       CLOUDY    62  43  49 S5        30.00R
MOLINE         CLOUDY    66  46  48 SW5       29.95R
MOUNT VERNON   MOCLDY    57  46  67 CALM      30.05R
PITTSFIELD     CLOUDY    60  55  84 E5        29.99F
QUINCY         CLOUDY    59  54  83 E7        29.98S
ROCKFORD       MOCLDY    65  39  38 S6        29.97R
$$


CITY           SKY/WX    TMP DP  RH WIND       PRES   REMARKS
BURLINGTON     MOCLDY    62  49  62 S8        29.94S
CEDAR RAPIDS   PTCLDY    63  54  72 S10       29.93R
DES MOINES     PTCLDY    62  55  77 SE9       29.88S
KIRKSVILLE     MOCLDY    58  54  86 SE6       29.95S
OTTUMWA        CLOUDY    59  56  89 E6        29.93R
ST LOUIS       MOCLDY    72  43  35 E8        30.00R
$$


CITY           SKY/WX    TMP DP  RH WIND       PRES   REMARKS
TERRE HAUTE    MOCLDY    61  47  59 CALM      30.05R
EVANSVILLE     MOCLDY    63  49  60 CALM      30.06R
INDIANAPOLIS   MOCLDY    62  43  49 SW7       30.04R
LAFAYETTE      MOCLDY    65  41  41 SW6       30.03R
MADISON        MOCLDY    66  42  41 CALM      29.91R
MILWAUKEE      PTCLDY    63  35  35 S9        29.94R
$$




USA.gov is the U.S. government's official web portal to all federal, state and local government web resources and services.